Regional Weather Roundup
Issued by NWS

Home | Current Version | Previous Version | Graphics & Text | Print | Product List | Glossary On
Versions: 1 2 3 4 5 6 7 8 9 10 11 12 13 14 15 16 17 18 19 20 21 22 23 24 25 26 27 28 29 30 31 32 33 34 35 36 37 38 39 40 41 42 43 44 45 46 47 48 49 50
000
ASUS45 KPSR 220110
RWRAZ

ARIZONA HOURLY REGIONAL WEATHER ROUNDUP
NATIONAL WEATHER SERVICE PHOENIX AZ
600 PM MST THU SEP 21 2017

NOTE: FAIR INDICATES FEW OR NO CLOUDS BELOW 12,000 FEET WITH NO
SIGNIFICANT WEATHER AND/OR OBSTRUCTIONS TO VISIBILITY.

AZZ001>003-036-220200-
NORTHWEST ARIZONA

CITY           SKY/WX    TMP DP  RH WIND       PRES   REMARKS
BULLHEAD CITY  PTCLDY    90  41  18 SW16      29.54S
KINGMAN        CLEAR     76  37  24 S25G32    29.73S
$$

AZZ004>008-015-016-018-220200-
NORTH CENTRAL ARIZONA

CITY           SKY/WX    TMP DP  RH WIND       PRES   REMARKS
GRAND CANYON   PTCLDY    65  33  30 SW30G38   29.89R
WILLIAMS       CLEAR     63  32  31 SW16G29   29.93R
PRESCOTT       CLEAR     72  37  28 S14G28    29.86F
FLAGSTAFF      PTCLDY    61  30  31 SW18G29   29.95S
PAYSON           N/A     73  36  25 SW15G26   29.91S
PAGE           CLEAR     81  28  14 SW14G29   29.66R
$$

AZZ009>014-017-220200-
NORTHEAST ARIZONA

CITY           SKY/WX    TMP DP  RH WIND       PRES   REMARKS
WINSLOW        CLEAR     77  28  16 SW28G40   29.84S
SAINT JOHNS    PTCLDY    76  38  25 SW23G29   29.92S
WINDOW ROCK    PTCLDY    72  29  20 SW16G28   29.96F
SHOW LOW       PTCLDY    70  36  28 S25       29.97S
$$

AZZ540-542>544-546-548-220200-
GREATER PHOENIX AREA

CITY           SKY/WX    TMP DP  RH WIND       PRES   REMARKS
PHOENIX        PTCLDY    94  37  13 W13G20    29.62F
BUCKEYE        CLEAR     90  41  18 S10       29.64S
GLENDALE       PTCLDY    93  36  13 S15G22    29.65S
LUKE AFB       CLEAR     92  38  15 SW18      29.62F
DEER VALLEY    FAIR      91  38  15 SW16      29.65S
SCOTTSDALE     CLEAR     92  34  13 SW12G17   29.66F
MESA-FALCON    PTCLDY    93  39  15 S15       29.66S
MESA-GATEWAY   PTCLDY    93  37  14 SW13      29.67S
CHANDLER       CLEAR    115  27   5 SW17      29.65S HX 106
$$

AZZ539-553-220200-
SOUTHWEST MARICOPA COUNTY AND PINAL COUNTY

CITY           SKY/WX    TMP DP  RH WIND       PRES   REMARKS
CASA GRANDE    NOT AVBL
GILA BEND      PTCLDY    91  25   9 SW22      29.63F
$$

AZZ503-504-507>509-220200-
SOUTHEAST ARIZONA

CITY           SKY/WX    TMP DP  RH WIND       PRES   REMARKS
TUCSON         PTCLDY    91  44  19 SW10G18   29.78S
DAVIS-MONTHAN  CLEAR     91  42  17 SW9       29.77S
RYAN FIELD     CLEAR     91  45  19 SW22      29.77S
NOGALES        FAIR      84  37  18 S13G21    29.88F
SIERRA VISTA   CLEAR     81  38  21 SW13G18   29.95S
DOUGLAS        CLEAR     85  37  18 SW17G28   29.89F
SAFFORD        PTCLDY    91  39  16 W14       29.76S
$$

AZZ532-220200-
SOUTHWEST ARIZONA

CITY           SKY/WX    TMP DP  RH WIND       PRES   REMARKS
YUMA           CLEAR     87  48  25 NW15G26   29.64S
$$

CAZ041-043-047-048-061-525>527-560>570-220200-
SOUTHERN CALIFORNIA

CITY           SKY/WX    TMP DP  RH WIND       PRES   REMARKS
DOWNTOWN L.A.  CLEAR     69  54  58 VRB5      29.81S
L.A. AIRPORT   PTCLDY    67  56  67 W15       29.81S
SAN DIEGO      PTCLDY    70  52  52 W12       29.87S
BURBANK        CLEAR     67  49  52 S13       29.81R
ONTARIO        PTCLDY    68  48  48 SW13      29.82R
RIVERSIDE      PTCLDY    69  49  48 W15       29.81S
PALM SPRINGS   FAIR      82  43  25 NW12G23   29.68S
EL CENTRO NAS  PTCLDY    80  49  33 W31       29.71S
IMPERIAL       CLEAR     80  53  39 W29G38    29.66R
BLYTHE         CLEAR     86  49  27 SW22      29.64S
NEEDLES        PTCLDY    91  40  16 SW18G28   29.58R
$$

NVZ020-UTZ003-220200-
SOUTHERN NEVADA-UTAH

CITY           SKY/WX    TMP DP  RH WIND       PRES   REMARKS
LAS VEGAS      PTCLDY    76  41  28 SW24G35   29.64S
SALT LAKE CITY LGT RAIN  48  42  80 NW18      29.78R
$$

NMZ009-TXZ055-220200-
NEW MEXICO-WEST TEXAS

CITY           SKY/WX    TMP DP  RH WIND       PRES   REMARKS
ALBUQUERQUE    PTCLDY    84  33  16 S21       29.88S
EL PASO        PTCLDY    89  43  20 S9        29.87F
$$


........................KEY........................
SKY/WX - SKY CONDITION/WEATHER
TMP    - TEMPERATURE IN FAHRENHEIT
DP     - DEW POINT IN FAHRENHEIT
RH     - RELATIVE HUMIDITY IN PERCENT
WIND   - DIRECTION AND SPEED IN MILES PER HOUR (MPH)
VRB    - VARIABLE WIND DIRECTION
PRES   - MEAN SEA LEVEL PRESSURE IN INCHES OF MERCURY
         F - FALLING PRESSURE   R - RISING PRESSURE
         S - STEADY PRESSURE
VSB    - VISIBILITY IN MILES
HX     - HEAT INDEX IN FAHRENHEIT
WCI    - WIND CHILL INDEX IN FAHRENHEIT
TC     - TEMPERATURE IN CELSIUS WHICH IS ALSO KNOWN AS
         TEMPERATURE IN CENTIGRADE
AFB    - AIR FORCE BASE
         LUKE AFB IS LUKE AIR FORCE BASE
         DAVIS-MONTHAN IS DAVIS-MONTHAN AIR FORCE BASE
NAS    - NAVAL AIR STATION
         EL CENTRO NAS IS EL CENTRO NAVAL AIR STATION
N/A    - NOT AVAILABLE




USA.gov is the U.S. government's official web portal to all federal, state and local government web resources and services.